Location: Cakovec
(46.3910°N, 16.4410°E)
Time: 01:49:42
(UTC+02:00)

ISS - Visible Passes

Search period start: 20 September 2019 00:00
Search period end: 30 September 2019 00:00
Orbit: 411 x 421 km, 51.6° (Epoch: 20 September)

Date Brightness Start Highest point End Pass type
(mag) Time Alt. Az. Time Alt. Az. Time Alt. Az.
20 Sep -2.5 19:49:10 10° SSW 19:51:50 23° SE 19:53:25 16° E visible
20 Sep -1.5 21:25:01 10° WSW 21:26:21 22° WSW 21:26:21 22° WSW visible
21 Sep -3.9 20:36:31 10° WSW 20:39:49 84° SSE 20:40:14 66° ENE visible
22 Sep -3.6 19:48:07 10° SW 19:51:22 54° SSE 19:53:58 15° ENE visible
22 Sep -1.6 21:25:03 10° W 21:26:52 26° WNW 21:26:52 26° WNW visible
23 Sep -3.1 20:36:21 10° W 20:39:36 51° NNW 20:40:26 39° NNE visible
24 Sep -3.6 19:47:44 10° WSW 19:51:02 71° NNW 19:53:54 13° ENE visible
24 Sep -1.4 21:25:05 10° WNW 21:26:48 23° NW 21:26:48 23° NW visible
25 Sep -2.5 20:36:22 10° WNW 20:39:28 35° N 20:40:11 31° NNE visible
26 Sep -2.8 19:47:37 10° W 19:50:49 41° NNW 19:53:31 13° NE visible
26 Sep -1.1 21:24:59 10° WNW 21:26:24 20° NW 21:26:24 20° NW visible
27 Sep -2.4 20:36:19 10° WNW 20:39:20 31° N 20:39:40 30° NNE visible
28 Sep -2.4 19:47:35 10° WNW 19:50:38 32° N 19:52:55 15° NE visible
28 Sep -1.0 21:24:40 10° WNW 21:25:48 19° NW 21:25:48 19° NW visible
29 Sep -2.6 20:36:04 10° WNW 20:39:02 35° N 20:39:02 35° N visible
